Home > Weather > Kassel > Past weeks

Flag for Germany Past Weather in Kassel, Hesse, Germany — Yesterday and Last 2 Weeks

Now
54 °F

Cool.


Feels Like: 54 °F
Forecast: 53 / 75 °F
Wind: 2 mph from Northwest

Location: Fritzlar Airport

Current Time: May 27, 2016 at 6:41:37 AM

Latest Report: May 27, 2016 at 5:20 AM


Visibility: 5 mi

Pressure: 30.01 "Hg

Humidity: 88%

Dew Point: 50 °F

Location of KasselLocation

Past Weather in Kassel — Graph

°F

Kassel Temperature Yesterday

Maximum temperature yesterday: 70 °F (at 6:20 PM)
Minimum temperature yesterday: 50 °F (at 5:20 AM)
Average temperature yesterday: 60 °F

High & Low Weather Summary for the Past Weeks

 TemperatureHumidityPressure
High79 °F (May 22, 2:20 PM)100% (May 20, 1:00 AM)30.09 "Hg (May 20, 1:00 AM)
Low36 °F (May 16, 4:20 AM)31% (May 13, 6:20 PM)29.47 "Hg (May 12, 7:20 PM)
Average55 °F71%29.91 "Hg
* Reported May 12 5:20 AM — May 27 5:20 AM, Kassel, Weather by CustomWeather, © 2016

Note: Actual official high and low records may vary slightly from our data, if they occured in-between our weather recording intervals... More about our weather records

Advertising

Kassel Weather History for the Previous 24 Hours

Scroll right to see more
 ConditionsComfort  
Time TempWeatherWind HumidityBarometerVisibility
5:20 AM
Fri, May 27
54 °FCool.2 mph88%30.01 "Hg5 mi
4:20 AM54 °FCool.5 mph88%30.01 "Hg4 mi
3:20 AM54 °FCool.3 mph88%29.98 "Hg5 mi
2:20 AM54 °FCool.2 mph88%29.98 "Hg5 mi
1:20 AM54 °FCool.5 mph88%30.01 "Hg4 mi
12:20 AM55 °FCool.3 mph82%30.01 "Hg5 mi
11:20 PM
Thu, May 26
54 °FCool.3 mph88%30.01 "Hg5 mi
10:20 PM57 °FCool.2 mph77%30.01 "HgN/A
9:20 PM63 °FMild.5 mph59%30.01 "HgN/A
8:20 PM66 °FMild.6 mph52%29.98 "HgN/A
7:20 PM68 °FMild.6 mph46%29.98 "HgN/A
6:20 PM70 °FMild.6 mph46%29.98 "HgN/A
5:20 PM68 °FMild.6 mph49%30.01 "HgN/A
4:20 PM68 °FMild.6 mph49%30.01 "HgN/A
3:20 PM66 °FMild.5 mph52%30.01 "HgN/A
2:20 PM68 °FMild.5 mph49%30.04 "HgN/A
1:20 PM64 °FMild.3 mph56%30.04 "HgN/A
12:20 PM64 °FMild.5 mph56%30.04 "HgN/A
11:20 AM61 °FCool.6 mph68%30.04 "HgN/A
10:20 AM61 °FCool.3 mph68%30.04 "Hg5 mi
9:20 AM59 °FCool.2 mph77%30.04 "Hg6 mi
8:20 AM55 °FCool.1 mph88%30.04 "Hg6 mi
7:20 AM54 °FCool.No wind88%30.04 "Hg6 mi
6:20 AM52 °FCool.No wind94%30.01 "Hg5 mi
Weather by CustomWeather, © 2016

See weather overviewHow to use our weather pages